{"data":{"norad_id":69629,"intl_designator":"2026-128D","name":"ZHUQUE-2E DEB","alt_names":[],"object_type":"DEBRIS","status":"UNKNOWN","operator":null,"country":"PRC","launch_date":"2026-06-09","launch_site_code":"JSC","launch_vehicle":null,"mission":null,"orbit_class":"UNKNOWN","rcs_meters":null,"size_class":null,"mass_kg":null,"dimensions":null,"purposes":[],"wikipedia_slug":null,"has_3d_model":false,"image_url":null,"decayed_at":null,"tle_current":{"epoch":"2026-07-08T13:55:10.316928Z","epoch_age_seconds":6416777,"freshness":"OLD","line1":"1 69629U 26128D   26189.57998052  .00262976  00000+0  14488-2 0  9990","line2":"2 69629  54.5332 201.8191 0048341  20.7219 339.5766 15.76771451  4556","mean_motion":15.76771451,"eccentricity":0.0048341,"inclination_deg":54.5332,"raan_deg":201.8191,"arg_perigee_deg":20.7219,"mean_anomaly_deg":339.5766,"bstar":0.0014488,"rev_number":455,"period_min":91.32585442784,"perigee_km":307.12084336547,"apogee_km":372.06922019513,"semimajor_km":6717.7320317803,"source":"CELESTRAK","updated_at":"2026-07-09T09:01:40.759232Z"}}}